OBJECT AA, 47437

Orbit data source: Space-Track

You're viewing an Uncataloged Satellite

Recently launched and/or uncataloged satellites may have evolving metadata. Metadata may include but not limited to: Owner, Maufacturer, Bus, Motor, and Mission.

OBJECT AA, 47437 is a satellite in SSO that was launched on Sun, 24 Jan 2021 UTC launched from the Air Force Eastern Test Range (AFETR). Unknown objects in Earth's orbit typically refer to objects detected orbiting the Earth but have not yet been identified or cataloged. These objects could be anything from previously untracked satellites, spent rocket stages, debris from satellite collisions, or even natural meteoroids temporarily captured by Earth's gravity.

Loading next visibility...
Identifier
47437, 2021-006AA
Orbit
SSO
Country
Flag of TBDTBD
Related business
Manufacturer
SpaceX/Seattle
Mission
Spacecraft
Bus & Motor
Unknown
Mass
~100 kg wet, ~100 kg dry
Launch date (UTC)
2021-01-24 (5 years ago)
Launch vehicle
Unknown
Launch site
Air Force Eastern Test Range (AFETR)
Object type
Unknown
Shape & HBR
Cyl, Unknown HBR
Radar Cross Section
0.110 m², Medium (>0.1 m² and < 1m²)

Expand to show TLE details & history
Last TLE update: 22 hours ago

TLE from 22 hours ago
0 OBJECT AA
1 47437U 21006AA  26172.51760750  .00003903  00000-0  13261-3 0  9994
2 47437  97.2236 213.3333 0008843 175.9067 184.2249 15.31020745299987
Epoch: 2026-06-21T12:25Z
TLE epoch observation values (Epoch: 2026-06-21T12:25:21.288Z)
Latitude
-0.00001°
Longitude
117.27787°
Altitude
481.919 km
Speed
7.621 km/s
True Right ascension
14h 13m 19s
True Declination
0° 00' 00"
Sunlit
Object was in full shadow at epoch
Visualization orbit readout
Latitude
Unknown
Longitude
Unknown
Altitude
Unknown
Speed
Unknown
Apparent Right ascension
Unknown
Apparent Declination
Unknown
Sunlit
N/A
Visualization observer readout
Local Sidereal Time
21:36:25
Azimuth
Unknown
Elevation
Unknown
Doppler factor
Unknown
Orbital elements
Apogee altitude
475.765 km
Perigee altitude
463.653 km
Semi-major axis
6,847.846 km
Eccentricity
0.00088
Inclination
97.2236°
RAAN
213.3333°
Arg. of periapsis
175.9067°
True anomaly
184.21744°
Mean anomaly
184.2249°
Eccentric anomaly
184.22117°
Mean motion
3.83012 °/min
Orbital period
93.99 mins
BSTAR
0.00013261
Loading maneuver chart data...
Computing Atmospheric mass density...

Documentation

Showing up to 5 results
|